Weather reports worldwide

Advertisment
Montpellier, France (7643): temperature & dewpoint: 20.03.2019 08:00:00 - 26.03.2019 08:00:00 (CET)Montpellier, France (7643): temperature 5cm: 20.03.2019 08:00:00 - 26.03.2019 08:00:00 (CET)Montpellier, France (7643): temperature -20cm & temperature -100cm: 20.03.2019 08:00:00 - 26.03.2019 08:00:00 (CET)Montpellier, France (7643): wind speed & gusts: 20.03.2019 08:00:00 - 26.03.2019 08:00:00 (CET)Montpellier, France (7643): wind direction: 20.03.2019 08:00:00 - 26.03.2019 08:00:00 (CET)Montpellier, France (7643): reduced air pressure: 20.03.2019 08:00:00 - 26.03.2019 08:00:00 (CET)Montpellier, France (7643): visibility: 20.03.2019 08:00:00 - 26.03.2019 08:00:00 (CET)Montpellier, France (7643): sunshine duration: 20.03.2019 08:00:00 - 26.03.2019 08:00:00 (CET)Montpellier, France (7643): precipitation: 20.03.2019 08:00:00 - 26.03.2019 08:00:00 (CET)
Date & Time tt [°C] td [°C] tt 5cm [°C] tt -20cm [°C] tt -100cm [°C] ff [km/h] ff [kn] fx [km/h] fx [kn] dd ppp [hPa] vv [km] sd [min] rr [mm]
26.03.2019 08:00:00 - - - - - - - - - - - - - -
26.03.2019 07:00:00 9,8 -5,0 7,7 11,8 12,8 40 22 67 36 NNW 1020,7 40 2 0,0
26.03.2019 06:00:00 9,5 -5,6 7,1 12,0 12,8 40 21 54 29 NNW 1020,4 60 0 0,0
26.03.2019 05:00:00 9,7 -5,1 7,1 12,1 12,8 28 15 46 25 NNW 1020,4 60 0 0,0
26.03.2019 04:00:00 9,2 -5,1 7,5 12,3 12,8 22 12 44 24 N 1021,2 60 0 0,0
26.03.2019 03:00:00 9,9 -5,3 7,5 12,4 12,8 24 13 45 24 NNW 1020,6 60 0 0,0
26.03.2019 02:00:00 10,1 -5,5 7,6 12,6 12,8 27 15 47 26 N 1020,3 21 0 0,0
26.03.2019 01:00:00 10,5 -5,9 8,5 12,8 12,8 29 15 44 24 N 1020,3 20 0 0,0
26.03.2019 00:00:00 11,0 -5,5 8,8 12,9 12,8 26 14 51 28 N 1020,3 21 0 0,0
25.03.2019 23:00:00 11,3 -4,8 8,7 13,1 12,8 24 13 51 27 NNW 1020,2 21 0 0,0
25.03.2019 22:00:00 11,6 -4,6 9,2 13,3 12,8 29 16 54 29 NNW 1019,9 28 0 0,0
25.03.2019 21:00:00 12,5 -6,0 10,5 13,4 12,8 37 20 61 33 N 1019,7 33 0 0,0
25.03.2019 20:00:00 13,3 -2,7 11,8 13,6 12,8 31 17 57 31 N 1018,6 50 0 0,0
25.03.2019 19:00:00 15,5 -3,4 14,2 13,7 12,8 34 18 59 32 N 1017,2 43 40 0,0
25.03.2019 18:00:00 18,1 -3,4 16,8 13,7 12,7 34 19 51 28 N 1016,2 37 60 0,0
25.03.2019 17:00:00 19,7 -3,3 19,7 13,7 12,8 35 19 54 29 NNE 1015,7 32 60 0,0
25.03.2019 16:00:00 20,6 -1,9 21,8 13,5 12,8 36 19 53 29 N 1016,0 33 60 0,0
25.03.2019 15:00:00 20,6 0,9 23,8 13,2 12,7 26 14 40 22 N 1016,5 35 60 0,0
25.03.2019 14:00:00 19,6 1,1 24,4 12,9 12,8 16 9 36 19 NNW 1017,4 17 60 0,0
25.03.2019 13:00:00 19,3 1,3 23,8 12,6 12,8 19 10 34 19 NNW 1018,6 19 60 0,0
25.03.2019 12:00:00 17,8 1,3 23,3 12,3 12,7 10 6 33 18 N 1019,9 19 60 0,0
25.03.2019 11:00:00 17,0 1,8 20,4 12,0 12,7 16 9 28 15 N 1020,6 18 60 0,0
25.03.2019 10:00:00 15,5 1,6 19,3 11,9 12,7 18 10 25 13 NNE 1020,9 18 60 0,0
25.03.2019 09:00:00 14,2 3,9 13,2 11,8 12,7 9 5 22 12 N 1021,0 18 60 0,0
25.03.2019 08:00:00 11,0 5,9 1,4 12,0 12,7 5 3 10 5 NW 1020,8 20 60 0,0
25.03.2019 07:00:00 6,7 1,4 1,2 12,2 12,7 4 2 11 6 WNW 1020,5 38 0 0,0
25.03.2019 06:00:00 9,1 2,9 1,0 12,4 12,7 9 5 11 6 NW 1020,3 47 0 0,0
25.03.2019 05:00:00 9,2 3,2 1,8 12,6 12,7 5 3 9 5 N 1020,3 44 0 0,0
25.03.2019 04:00:00 10,1 4,2 2,9 12,7 12,7 0 0 12 6 N 1020,6 58 0 0,0
25.03.2019 03:00:00 13,2 3,5 4,7 12,8 12,7 8 4 11 6 NNW 1020,8 35 0 0,0
25.03.2019 02:00:00 12,0 5,6 6,2 13,0 12,7 11 6 18 10 N 1020,9 20 0 0,0
25.03.2019 01:00:00 13,6 5,2 9,8 13,2 12,7 14 7 29 15 N 1021,0 20 0 0,0
25.03.2019 00:00:00 15,8 3,6 8,1 13,3 12,7 12 7 18 10 NNW 1020,9 60 0 0,0
24.03.2019 23:00:00 15,7 3,5 7,9 13,5 12,7 12 7 18 10 NNW 1020,7 60 0 0,0
24.03.2019 22:00:00 14,9 3,4 6,5 13,7 12,7 16 8 26 14 N 1020,6 60 0 0,0
24.03.2019 21:00:00 12,3 4,0 7,0 13,8 12,7 7 4 17 9 NNW 1020,1 53 0 0,0
24.03.2019 20:00:00 15,3 9,2 11,0 13,9 12,7 16 8 23 12 WSW 1019,8 60 0 0,0
24.03.2019 19:00:00 16,2 6,3 12,3 14,0 12,7 14 8 21 11 SSW 1019,9 60 39 0,0
24.03.2019 18:00:00 19,1 7,5 16,8 13,9 12,7 12 6 18 10 SW 1019,6 60 60 0,0
24.03.2019 17:00:00 21,1 6,2 21,3 13,8 12,7 11 6 19 10 SSW 1019,8 60 60 0,0
24.03.2019 16:00:00 21,6 5,1 24,7 13,5 12,6 15 8 22 12 SSW 1020,4 20 60 0,0
24.03.2019 15:00:00 21,6 5,9 26,0 13,1 12,7 17 9 23 12 SSW 1021,0 20 60 0,0
24.03.2019 14:00:00 21,6 5,1 27,3 12,6 12,6 13 7 20 11 SSW 1021,7 20 60 0,0
24.03.2019 13:00:00 20,8 7,4 27,6 12,2 12,7 13 7 19 10 SSW 1022,5 20 60 0,0
24.03.2019 12:00:00 20,9 5,7 26,8 11,8 12,7 10 5 21 11 SE 1023,2 60 60 0,0
24.03.2019 11:00:00 20,3 4,3 25,5 11,5 12,6 14 8 26 14 NNE 1023,5 19 60 0,0
24.03.2019 10:00:00 18,7 4,1 20,8 11,3 12,7 11 6 18 10 NNE 1024,0 60 60 0,0
24.03.2019 09:00:00 14,7 4,1 13,4 11,3 12,7 10 5 14 8 NNE 1023,9 60 60 0,0
24.03.2019 08:00:00 10,9 4,6 1,3 11,3 12,6 4 2 9 5 N 1023,7 60 58 0,0
24.03.2019 07:00:00 5,9 0,8 0,8 11,5 12,7 6 4 8 4 N 1023,4 60 0 0,0
24.03.2019 06:00:00 6,8 0,9 0,0 11,7 12,7 3 2 6 3 NE 1023,4 60 0 0,0
24.03.2019 05:00:00 8,0 1,6 0,4 11,8 12,7 0 0 3 2 N 1023,2 60 0 0,0
24.03.2019 04:00:00 9,6 2,0 1,8 12,0 12,6 0 0 5 3 N 1023,0 60 0 0,0
24.03.2019 03:00:00 10,3 1,6 1,7 12,2 12,7 4 2 10 5 NNE 1023,1 60 0 0,0
24.03.2019 02:00:00 12,2 1,5 3,0 12,4 12,7 10 5 16 9 N 1023,1 40 0 0,0
24.03.2019 01:00:00 12,0 1,9 3,4 12,6 12,7 12 7 17 9 NNE 1023,4 60 0 0,0
24.03.2019 00:00:00 11,6 1,5 3,7 12,8 12,6 4 2 11 6 N 1023,5 7 0 0,0
23.03.2019 23:00:00 12,4 4,4 3,4 13,0 12,6 6 3 10 5 N 1023,6 50 0 0,0
23.03.2019 22:00:00 14,2 4,7 4,0 13,2 12,6 6 4 8 5 N 1023,6 44 0 0,0
23.03.2019 21:00:00 13,5 7,0 5,0 13,4 12,7 6 3 11 6 ENE 1023,3 60 0 0,0
23.03.2019 20:00:00 13,8 8,2 6,6 13,5 12,6 7 4 11 6 E 1022,9 60 0 0,0
23.03.2019 19:00:00 17,8 5,4 9,5 13,6 12,6 7 4 14 8 SW 1022,2 59 38 0,0
23.03.2019 18:00:00 21,8 8,0 18,5 13,4 12,6 10 6 23 13 SSW 1021,7 60 60 0,0
23.03.2019 17:00:00 23,2 4,7 22,8 13,2 12,6 18 10 25 13 SW 1021,7 60 60 0,0
23.03.2019 16:00:00 24,3 2,4 26,3 12,9 12,6 14 7 24 13 SW 1021,8 60 60 0,0
23.03.2019 15:00:00 25,7 0,3 28,9 12,5 12,6 13 7 28 15 NE 1022,3 60 60 0,0
23.03.2019 14:00:00 25,2 -0,1 28,3 12,1 12,6 19 11 33 18 NE 1023,0 20 60 0,0
23.03.2019 13:00:00 24,7 0,2 27,6 11,7 12,6 21 11 38 21 NNE 1023,9 60 60 0,0
23.03.2019 12:00:00 23,7 1,3 28,8 11,2 12,6 10 5 37 20 ESE 1024,6 60 60 0,0
23.03.2019 11:00:00 18,3 6,8 24,6 10,9 12,7 6 3 10 5 S 1025,5 19 60 0,0
23.03.2019 10:00:00 14,9 5,1 18,5 10,6 12,6 4 2 7 4 SE 1026,1 60 56 0,0
23.03.2019 09:00:00 12,6 4,5 12,3 10,6 12,6 5 3 8 4 E 1026,0 49 50 0,0
23.03.2019 08:00:00 9,2 4,4 -1,2 10,7 12,6 0 0 5 3 N 1025,8 43 57 0,0
23.03.2019 07:00:00 3,7 -0,7 -2,0 10,9 12,6 0 0 10 6 N 1025,7 48 0 0,0
23.03.2019 06:00:00 5,0 0,0 -1,7 11,1 12,6 4 2 6 3 N 1025,6 46 0 0,0
23.03.2019 05:00:00 5,4 1,1 -1,3 11,3 12,7 0 0 4 2 N 1025,6 42 0 0,0
23.03.2019 04:00:00 4,6 -0,2 -1,1 11,5 12,6 3 1 7 4 NNW 1025,9 50 0 0,0
23.03.2019 03:00:00 8,0 0,7 -0,4 11,7 12,6 2 1 7 4 WNW 1026,2 57 0 0,0
23.03.2019 02:00:00 8,2 0,7 0,9 11,9 12,7 4 2 8 4 N 1026,2 44 0 0,0
23.03.2019 01:00:00 9,9 -0,1 0,5 12,1 12,6 4 2 5 3 WNW 1026,4 49 0 0,0
23.03.2019 00:00:00 8,5 1,9 1,5 12,3 12,6 8 4 11 6 ENE 1026,8 10 0 0,0
22.03.2019 23:00:00 13,5 -2,5 3,0 12,5 12,6 4 2 13 7 WNW 1026,6 60 0 0,0
22.03.2019 22:00:00 14,1 -3,2 6,2 12,7 12,6 9 5 17 9 W 1026,5 59 0 0,0
22.03.2019 21:00:00 14,0 0,2 7,0 12,8 12,6 9 5 16 9 W 1026,3 60 0 0,0
22.03.2019 20:00:00 14,8 5,6 10,1 12,9 12,6 12 6 21 11 WSW 1025,9 60 0 0,0
22.03.2019 19:00:00 15,9 4,6 11,9 12,9 12,6 14 8 22 12 SW 1025,7 60 37 0,0
22.03.2019 18:00:00 17,9 4,5 15,9 12,8 12,6 16 9 25 14 SSW 1025,8 60 60 0,0
22.03.2019 17:00:00 19,7 2,5 20,0 12,7 12,6 12 7 25 13 SW 1025,8 51 60 0,0
22.03.2019 16:00:00 20,2 0,6 22,8 12,4 12,6 14 8 20 11 SSW 1026,5 20 60 0,0
22.03.2019 15:00:00 20,1 5,3 24,3 12,0 12,6 13 7 22 12 SSW 1027,2 20 60 0,0
22.03.2019 14:00:00 19,2 5,6 25,4 11,5 12,6 14 8 19 11 SSW 1027,9 19 60 0,0
22.03.2019 13:00:00 18,7 4,8 25,5 11,1 12,7 9 5 13 7 SSE 1028,3 60 60 0,0
22.03.2019 12:00:00 17,4 5,0 24,8 10,7 12,6 9 5 14 8 SE 1028,7 19 60 0,0
22.03.2019 11:00:00 17,6 3,1 21,7 10,4 12,6 10 5 20 11 NE 1029,0 19 60 0,0
22.03.2019 10:00:00 15,7 2,8 17,7 10,2 12,6 16 8 24 13 NNE 1029,1 20 60 0,0
22.03.2019 09:00:00 11,4 2,1 11,6 10,1 12,6 10 5 14 8 N 1029,1 20 60 0,0
22.03.2019 08:00:00 8,4 1,5 -1,0 10,2 12,6 4 2 7 4 NNW 1029,2 20 55 0,0
22.03.2019 07:00:00 4,6 -0,2 -2,4 10,4 12,7 3 1 18 10 N 1028,6 60 0 0,0
22.03.2019 06:00:00 5,8 -0,5 -2,4 10,5 12,7 5 3 9 5 N 1028,2 60 0 0,0
22.03.2019 05:00:00 4,9 -0,1 -1,0 10,7 12,7 3 2 19 10 ENE 1028,0 54 0 0,0
22.03.2019 04:00:00 5,2 0,0 0,9 10,8 12,6 12 7 14 7 NNW 1028,0 44 0 0,0
22.03.2019 03:00:00 6,4 1,1 -0,3 10,9 12,6 9 5 12 6 N 1028,3 36 0 0,0
22.03.2019 02:00:00 5,5 0,7 -1,2 11,2 12,7 5 3 6 3 NNW 1028,6 34 0 0,0
22.03.2019 01:00:00 6,2 0,7 -0,8 11,3 12,6 4 2 9 5 NW 1028,7 36 0 0,0
22.03.2019 00:00:00 7,2 1,1 -0,4 11,5 12,6 5 3 13 7 NNE 1028,6 31 0 0,0
21.03.2019 23:00:00 7,0 1,3 0,8 11,8 12,6 8 5 10 6 NNE 1028,6 28 0 0,0
21.03.2019 22:00:00 7,1 1,8 0,3 12,0 12,7 9 5 12 7 NNE 1028,3 31 0 0,0
21.03.2019 21:00:00 10,6 0,6 0,3 12,2 12,7 4 2 11 6 W 1027,9 40 0 0,0
21.03.2019 20:00:00 11,1 3,4 2,7 12,3 12,6 7 4 15 8 WSW 1027,6 44 0 0,0
21.03.2019 19:00:00 12,1 4,6 7,2 12,4 12,6 10 5 18 10 SW 1027,0 48 36 0,0
21.03.2019 18:00:00 14,8 3,6 12,9 12,3 12,7 15 8 21 12 SW 1026,9 57 60 0,0
21.03.2019 17:00:00 15,0 2,2 15,9 12,2 12,7 15 8 23 12 SW 1027,1 20 60 0,0
21.03.2019 16:00:00 15,7 1,4 18,9 11,8 12,6 15 8 24 13 SSW 1027,3 20 60 0,0
21.03.2019 15:00:00 16,0 3,4 21,2 11,5 12,6 17 9 27 15 SSW 1027,7 20 60 0,0
21.03.2019 14:00:00 15,7 0,7 21,8 11,1 12,6 13 7 19 10 S 1028,2 20 60 0,0
21.03.2019 13:00:00 15,2 -0,2 21,9 10,7 12,6 10 6 16 9 SE 1028,7 57 60 0,0
21.03.2019 12:00:00 15,5 -1,1 21,0 10,4 12,7 9 5 21 11 ESE 1029,2 20 60 0,0
21.03.2019 11:00:00 14,1 -0,8 18,6 10,1 12,6 14 7 30 16 NNE 1029,6 20 60 0,0
21.03.2019 10:00:00 12,2 -1,4 15,3 10,0 12,6 19 10 29 16 N 1029,6 60 60 0,0
21.03.2019 09:00:00 10,2 -0,6 10,7 10,0 12,6 13 7 21 11 N 1029,6 60 60 0,0
21.03.2019 08:00:00 7,4 -1,1 -2,2 10,1 12,6 11 6 18 10 N 1029,6 19 53 0,0
21.03.2019 07:00:00 5,2 -2,9 -2,2 10,2 12,6 4 2 11 6 NNW 1029,0 60 0 0,0
21.03.2019 06:00:00 6,1 -2,8 -2,8 10,4 12,6 5 3 14 7 NNW 1028,5 60 0 0,0
21.03.2019 05:00:00 3,8 -3,0 -1,4 10,5 12,6 12 6 14 8 N 1028,4 60 0 0,0
21.03.2019 04:00:00 4,9 -3,4 -2,2 10,7 12,6 11 6 18 10 N 1028,4 60 0 0,0
21.03.2019 03:00:00 2,9 -3,5 -1,7 10,9 12,7 13 7 17 9 N 1028,8 60 0 0,0
21.03.2019 02:00:00 4,7 -3,1 -1,3 11,1 12,7 10 5 14 7 N 1028,9 60 0 0,0
21.03.2019 01:00:00 8,9 -3,7 -0,6 11,3 12,6 11 6 17 9 NW 1029,2 60 0 0,0
21.03.2019 00:00:00 6,3 -2,6 -0,9 11,5 12,7 14 8 16 9 NW 1029,2 60 0 0,0
20.03.2019 23:00:00 10,1 -2,9 -1,0 11,7 12,6 7 4 14 8 NNW 1029,2 60 0 0,0
20.03.2019 22:00:00 6,9 1,2 0,8 11,9 12,7 7 4 12 7 NNW 1029,2 50 0 0,0
20.03.2019 21:00:00 8,5 3,3 -0,3 12,1 12,6 5 3 9 5 E 1029,0 60 0 0,0
20.03.2019 20:00:00 9,2 4,4 0,4 12,3 12,7 2 1 8 5 ENE 1028,3 60 0 0,0
20.03.2019 19:00:00 11,9 4,6 4,5 12,3 12,7 5 3 11 6 SW 1027,6 60 34 0,0
20.03.2019 18:00:00 14,7 3,8 12,3 12,3 12,6 8 5 18 10 SSW 1026,9 60 60 0,0
20.03.2019 17:00:00 15,3 0,3 15,9 12,1 12,6 16 9 28 15 SW 1026,6 60 60 0,0
20.03.2019 16:00:00 15,4 0,0 18,2 11,8 12,7 22 12 29 16 SW 1026,7 20 60 0,0
20.03.2019 15:00:00 15,8 -0,9 21,0 11,5 12,6 15 8 33 18 SW 1027,2 20 60 0,0
20.03.2019 14:00:00 16,9 -3,3 20,2 11,2 12,6 19 10 40 22 N 1027,6 60 60 0,0
20.03.2019 13:00:00 15,7 -3,8 20,6 10,9 12,6 26 14 40 21 NNE 1028,5 60 60 0,0
20.03.2019 12:00:00 14,4 -4,4 18,9 10,6 12,6 17 9 44 24 N 1028,9 60 60 0,0
20.03.2019 11:00:00 13,6 -3,2 17,6 10,4 12,6 30 16 45 25 N 1029,1 20 60 0,0
20.03.2019 10:00:00 12,4 -3,0 14,5 10,3 12,6 25 13 44 24 N 1029,1 20 60 0,0
20.03.2019 09:00:00 10,9 -2,5 11,2 10,3 12,6 24 13 40 22 N 1029,0 60 60 0,0
20.03.2019 08:00:00 7,5 -0,5 -3,6 10,5 12,7 7 4 10 6 NW 1028,5 58 51 0,0

tt = temperature
td = dewpoint
tt 5cm = temperature 5cm
tt -20cm = temperature -20cm
tt -100cm = temperature -100cm
ff = wind speed
fx = gusts
dd = wind direction
ppp = reduced air pressure
vv = visibility
sd = sunshine duration
rr = precipitation

Next stations